Location: Kunchanapalle
(16.4623°N, 80.6176°E)
Time: 16:41:48
(UTC+00:00)

CZ-2D R/B - Pass Details

Date: 13 August 2020
Orbit: 522 x 537 km, 97.4° (Epoch: 18 September)

Event Time Altitude Azimuth Distance (km) Brightness Sun altitude
Rises 13:21:55 0° 168° (SSE) 2,637 6.5 -5.1°
Reaches altitude 10° 13:24:00 10° 168° (SSE) 1,751 5.6 -5.6°
Maximum altitude 13:27:47 89° 98° (E) 526 3.2 -6.5°
Drops below altitude 10° 13:31:35 10° 349° (N) 1,760 6.3 -7.3°
Sets 13:33:41 0° 349° (N) 2,651 7.2 -7.8°
